This is the latest recevied weather packets stored in our database for station/object OE2ATN. If no packets are shown the sender has not sent any weather packets the latest 10 day(s).
| Time | Temp. | Humidity | Pressure | Rain* | Wind** | Luminosity | Snow |
|---|---|---|---|---|---|---|---|
| 1777252321 | 5° C | 76% | 1029.2 hPa | 0 mm | - | - | - |
| 1777252021 | 5.56° C | 76% | 1029.3 hPa | 0 mm | - | - | - |
| 1777251721 | 5.56° C | 76% | 1029.2 hPa | 0 mm | - | - | - |
| 1777251421 | 5.56° C | 76% | 1029 hPa | 0 mm | - | - | - |
| 1777251121 | 6.11° C | 76% | 1029 hPa | 0 mm | - | - | - |
| 1777250821 | 5.56° C | 76% | 1029 hPa | 0 mm | - | - | - |
| 1777250520 | 5.56° C | 76% | 1029 hPa | 0 mm | - | - | - |
| 1777250221 | 5.56° C | 75% | 1029 hPa | 0 mm | - | - | - |
| 1777249920 | 6.11° C | 75% | 1029 hPa | 0 mm | - | - | - |
| 1777249620 | 6.11° C | 75% | 1029 hPa | 0 mm | - | - | - |
| 1777249320 | 6.11° C | 75% | 1029.2 hPa | 0 mm | - | - | - |
| 1777249020 | 6.11° C | 75% | 1029.2 hPa | 0 mm | - | - | - |
| 1777248720 | 6.11° C | 75% | 1029 hPa | 0 mm | - | - | - |
| 1777248419 | 6.67° C | 74% | 1029.2 hPa | 0 mm | - | - | - |
| 1777248120 | 6.67° C | 74% | 1029.4 hPa | 0 mm | - | - | - |
| 1777247820 | 6.67° C | 74% | 1029.3 hPa | 0 mm | - | - | - |
| 1777247520 | 6.67° C | 74% | 1029.4 hPa | 0 mm | - | - | - |
| 1777247219 | 6.67° C | 74% | 1029.3 hPa | 0 mm | - | - | - |
| 1777246920 | 6.67° C | 73% | 1029.2 hPa | 0 mm | - | - | - |
| 1777246619 | 7.22° C | 73% | 1029.3 hPa | 0 mm | - | - | - |
| 1777246319 | 7.22° C | 73% | 1029.3 hPa | 0 mm | - | - | - |
| 1777246019 | 7.22° C | 73% | 1029.4 hPa | 0 mm | - | - | - |
| 1777245719 | 7.22° C | 72% | 1029.4 hPa | 0 mm | - | - | - |
| 1777245419 | 7.78° C | 71% | 1029.4 hPa | 0 mm | - | - | - |
| 1777245119 | 7.78° C | 70% | 1029.3 hPa | 0 mm | - | - | - |
* Rain latest hour (hover to see other rain measurements)
** Current wind speed in m/s (hover to see current wind gust speed)